KE4OGG Weather Reports


Display with metric or nautical units.
time (UTC)temp
F
wind
direction
speed
MPH
gust
MPH
rain 1hr
in
rain 24hr
in
rain mn
in
humidity
%
barometer
mb
20260904203523 95 99 2.0 7.0 0.00 0.00 0.00 37 1015.7
20260904203043 95 109 2.0 7.0 0.00 0.00 0.00 35 1015.8
20260904202541 95 124 3.0 7.0 0.00 0.00 0.00 36 1015.8
20260904202025 96 119 0.0 7.0 0.00 0.00 0.00 36 1016.1
20260904201550 95 101 2.0 8.0 0.00 0.00 0.00 35 1016.1
20260904201025 96 135 2.0 8.0 0.00 0.00 0.00 35 1016.1
20260904200528 96 94 3.0 8.0 0.00 0.00 0.00 34 1016.1
20260904200047 96 268 0.0 6.0 0.00 0.00 0.00 35 1016.1
20260904195527 96 105 2.0 7.0 0.00 0.00 0.00 36 1016.2
20260904195024 97 127 3.0 7.0 0.00 0.00 0.00 36 1016.3
20260904194544 97 333 1.0 6.0 0.00 0.00 0.00 36 1016.4
20260904194025 96 89 1.0 8.0 0.00 0.00 0.00 38 1016.5
20260904193524 96 96 3.0 8.0 0.00 0.00 0.00 37 1016.6
20260904193052 95 213 3.0 9.0 0.00 0.00 0.00 36 1016.7
20260904192525 95 83 5.0 9.0 0.00 0.00 0.00 37 1016.7
20260904192025 95 93 2.0 7.0 0.00 0.00 0.00 35 1016.9
20260904191548 95 0 3.0 7.0 0.00 0.00 0.00 39 1017.2
20260904191025 96 88 2.0 7.0 0.00 0.00 0.00 36 1017.2
20260904190525 96 84 2.0 8.0 0.00 0.00 0.00 38 1017.3
20260904190047 95 290 1.0 8.0 0.00 0.00 0.00 38 1017.4
20260904185526 95 115 1.0 7.0 0.00 0.00 0.00 39 1017.3
20260904185025 95 116 4.0 7.0 0.00 0.00 0.00 36 1017.3
20260904184548 95 88 2.0 8.0 0.00 0.00 0.00 38 1017.2
20260904184025 95 262 0.0 10.0 0.00 0.00 0.00 38 1017.2
20260904183524 95 83 4.0 10.0 0.00 0.00 0.00 39 1017.2
20260904183050 95 118 2.0 6.0 0.00 0.00 0.00 37 1017.3
20260904182528 95 295 1.0 7.0 0.00 0.00 0.00 37 1017.4
20260904182028 95 316 0.0 7.0 0.00 0.00 0.00 37 1017.5
20260904181553 95 176 4.0 7.0 0.00 0.00 0.00 37 1017.6
20260904181030 95 307 1.0 7.0 0.00 0.00 0.00 41 1017.6
20260904180526 94 99 4.0 7.0 0.00 0.00 0.00 40 1017.6
20260904180047 94 108 0.0 7.0 0.00 0.00 0.00 42 1017.7
20260904175527 94 121 2.0 7.0 0.00 0.00 0.00 41 1017.8
20260904175024 94 93 2.0 7.0 0.00 0.00 0.00 41 1017.9
20260904174553 93 141 2.0 7.0 0.00 0.00 0.00 41 1017.9
20260904174024 93 117 2.0 7.0 0.00 0.00 0.00 43 1018.0
20260904173523 93 94 3.0 6.0 0.00 0.00 0.00 42 1018.0
20260904173052 94 84 2.0 6.0 0.00 0.00 0.00 43 1018.0
20260904172522 94 141 2.0 4.0 0.00 0.00 0.00 42 1017.9
20260904172024 93 287 1.0 3.0 0.00 0.00 0.00 44 1018.0
20260904171557 93 134 1.0 3.0 0.00 0.00 0.00 44 1018.1
20260904171026 93 293 0.0 5.0 0.00 0.00 0.00 42 1018.1
20260904170528 93 102 0.0 5.0 0.00 0.00 0.00 45 1018.1
20260904170048 92 113 1.0 5.0 0.00 0.00 0.00 47 1018.1
20260904165528 91 0 3.0 5.0 0.00 0.00 0.00 45 1018.2
20260904165025 91 107 3.0 5.0 0.00 0.00 0.00 45 1018.2
20260904164550 92 118 3.0 5.0 0.00 0.00 0.00 45 1018.3
20260904164027 93 101 1.0 4.0 0.00 0.00 0.00 45 1018.4
20260904163525 92 0 0.0 2.0 0.00 0.00 0.00 48 1018.5
20260904163044 92 287 1.0 3.0 0.00 0.00 0.00 44 1018.6
20260904162525 92 326 1.0 3.0 0.00 0.00 0.00 48 1018.6
20260904162027 91 279 0.0 3.0 0.00 0.00 0.00 47 1018.7
20260904161548 91 295 1.0 4.0 0.00 0.00 0.00 46 1018.8
20260904161026 91 3 0.0 4.0 0.00 0.00 0.00 48 1018.9
20260904160526 91 120 1.0 4.0 0.00 0.00 0.00 47 1018.9
20260904160045 91 129 0.0 2.0 0.00 0.00 0.00 48 1019.1
20260904155526 90 131 0.0 7.0 0.00 0.00 0.00 50 1019.1
20260904155025 89 130 3.0 7.0 0.00 0.00 0.00 50 1019.1
20260904154545 89 0 0.0 3.0 0.00 0.00 0.00 52 1019.1
20260904154024 89 96 1.0 3.0 0.00 0.00 0.00 50 1019.1
20260904153524 89 100 1.0 3.0 0.00 0.00 0.00 50 1019.1
20260904153102 89 0 0.0 4.0 0.00 0.00 0.00 51 1019.1
20260904152524 89 264 1.0 4.0 0.00 0.00 0.00 54 1019.2
20260904152024 89 307 1.0 3.0 0.00 0.00 0.00 50 1019.3
20260904151547 89 0 1.0 3.0 0.00 0.00 0.00 51 1019.2
20260904151025 89 202 0.0 3.0 0.00 0.00 0.00 51 1019.2
20260904150525 88 0 0.0 3.0 0.00 0.00 0.00 53 1019.2
20260904150043 88 307 0.0 2.0 0.00 0.00 0.00 52 1019.1
20260904145524 88 346 0.0 3.0 0.00 0.00 0.00 52 1019.2
20260904145024 87 331 1.0 3.0 0.00 0.00 0.00 53 1019.1
20260904144544 87 297 0.0 2.0 0.00 0.00 0.00 52 1019.1
20260904144029 87 297 0.0 3.0 0.00 0.00 0.00 53 1019.1
20260904143525 87 0 0.0 3.0 0.00 0.00 0.00 54 1018.9
20260904143043 87 295 0.0 4.0 0.00 0.00 0.00 55 1018.8
20260904142525 85 0 1.0 4.0 0.00 0.00 0.00 56 1018.9
20260904142027 87 304 0.0 3.0 0.00 0.00 0.00 54 1019.0
20260904141545 86 0 1.0 3.0 0.00 0.00 0.00 54 1018.9
20260904141023 87 0 0.0 3.0 0.00 0.00 0.00 54 1018.9
20260904140526 87 306 0.0 1.0 0.00 0.00 0.00 55 1018.9
20260904140046 86 0 0.0 3.0 0.00 0.00 0.00 56 1018.9
20260904135524 85 0 0.0 3.0 0.00 0.00 0.00 57 1018.9
20260904135024 85 307 1.0 3.0 0.00 0.00 0.00 56 1018.9
20260904134544 85 344 0.0 2.0 0.00 0.00 0.00 56 1019.1
20260904134027 85 0 0.0 0.0 0.00 0.00 0.00 57 1019.0
20260904133529 84 305 0.0 0.0 0.00 0.00 0.00 58 1019.0
20260904133049 84 0 0.0 0.0 0.00 0.00 0.00 58 1019.0
20260904132525 83 0 0.0 0.0 0.00 0.00 0.00 60 1019.1
20260904132025 81 304 0.0 1.0 0.00 0.00 0.00 61 1019.0
20260904131557 80 0 0.0 1.0 0.00 0.00 0.00 63 1019.0
20260904131025 79 0 0.0 1.0 0.00 0.00 0.00 64 1018.9
20260904130527 78 0 0.0 1.0 0.00 0.00 0.00 66 1018.9
20260904130045 77 0 0.0 1.0 0.00 0.00 0.00 67 1018.9
20260904125531 77 0 0.0 1.0 0.00 0.00 0.00 68 1018.9
20260904125026 76 0 0.0 1.0 0.00 0.00 0.00 68 1018.9
20260904124546 76 300 0.0 1.0 0.00 0.00 0.00 68 1018.8
20260904124024 76 0 0.0 1.0 0.00 0.00 0.00 68 1018.9
20260904123524 75 300 0.0 1.0 0.00 0.00 0.00 68 1018.8
20260904123045 75 0 0.0 1.0 0.00 0.00 0.00 68 1018.8
20260904122527 75 0 0.0 1.0 0.00 0.00 0.00 68 1018.9
20260904122025 75 0 0.0 0.0 0.00 0.00 0.00 69 1018.9
20260904121549 75 0 0.0 0.0 0.00 0.00 0.00 70 1018.9
20260904121024 74 0 0.0 0.0 0.00 0.00 0.00 71 1018.9
20260904120526 74 0 0.0 0.0 0.00 0.00 0.00 72 1018.9
20260904120052 74 0 0.0 0.0 0.00 0.00 0.00 72 1018.9
20260904115525 73 0 0.0 0.0 0.00 0.00 0.00 72 1018.9
20260904115025 73 0 0.0 0.0 0.00 0.00 0.00 72 1018.9
20260904114549 73 0 0.0 0.0 0.00 0.00 0.00 72 1018.9
20260904114026 73 0 0.0 0.0 0.00 0.00 0.00 72 1018.8
20260904113526 73 0 0.0 0.0 0.00 0.00 0.00 72 1018.8
20260904113046 73 0 0.0 0.0 0.00 0.00 0.00 72 1018.8
20260904112524 73 0 0.0 0.0 0.00 0.00 0.00 72 1018.8
20260904112024 73 0 0.0 0.0 0.00 0.00 0.00 72 1018.8
20260904111549 73 0 0.0 0.0 0.00 0.00 0.00 71 1018.7
20260904111025 73 0 0.0 0.0 0.00 0.00 0.00 71 1018.7
20260904110526 73 0 0.0 0.0 0.00 0.00 0.00 71 1018.6
20260904110046 73 0 0.0 0.0 0.00 0.00 0.00 70 1018.6
20260904105527 73 0 0.0 0.0 0.00 0.00 0.00 70 1018.5
20260904105025 73 0 0.0 0.0 0.00 0.00 0.00 70 1018.3
20260904104554 73 0 0.0 0.0 0.00 0.00 0.00 70 1018.2
20260904104026 73 0 0.0 0.0 0.00 0.00 0.00 71 1018.2
20260904103523 73 0 0.0 0.0 0.00 0.00 0.00 71 1018.2
20260904103056 73 0 0.0 0.0 0.00 0.00 0.00 70 1018.2
20260904102525 73 0 0.0 0.0 0.00 0.00 0.00 70 1018.2
20260904102021 73 0 0.0 0.0 0.00 0.00 0.00 70 1018.2
20260904101543 73 0 0.0 0.0 0.00 0.00 0.00 70 1018.1
20260904101026 73 0 0.0 0.0 0.00 0.00 0.00 69 1018.1
20260904100525 73 0 0.0 0.0 0.00 0.00 0.00 69 1018.0
20260904100046 73 0 0.0 0.0 0.00 0.00 0.00 69 1018.0
20260904095526 73 0 0.0 0.0 0.00 0.00 0.00 69 1018.0
20260904095024 74 0 0.0 0.0 0.00 0.00 0.00 69 1018.0
20260904094547 74 0 0.0 0.0 0.00 0.00 0.00 69 1018.0
20260904094025 74 0 0.0 0.0 0.00 0.00 0.00 69 1018.0
20260904093526 74 0 0.0 0.0 0.00 0.00 0.00 69 1017.9
20260904093044 74 0 0.0 0.0 0.00 0.00 0.00 69 1017.8
20260904092524 74 0 0.0 0.0 0.00 0.00 0.00 68 1017.9
20260904092021 74 0 0.0 0.0 0.00 0.00 0.00 68 1017.8
20260904091547 74 0 0.0 0.0 0.00 0.00 0.00 68 1017.8
20260904091023 74 0 0.0 0.0 0.00 0.00 0.00 68 1017.7
20260904090525 74 0 0.0 0.0 0.00 0.00 0.00 69 1017.6
20260904090048 74 0 0.0 0.0 0.00 0.00 0.00 69 1017.6
20260904085524 74 0 0.0 0.0 0.00 0.00 0.00 69 1017.6
20260904085026 74 0 0.0 0.0 0.00 0.00 0.00 69 1017.5
20260904084546 74 0 0.0 0.0 0.00 0.00 0.00 69 1017.4
20260904084023 74 0 0.0 0.0 0.00 0.00 0.00 69 1017.4
20260904083523 74 0 0.0 0.0 0.00 0.00 0.00 69 1017.4
20260904083103 74 0 0.0 0.0 0.00 0.00 0.00 69 1017.5
20260904082524 74 0 0.0 0.0 0.00 0.00 0.00 69 1017.6
20260904082024 74 0 0.0 0.0 0.00 0.00 0.00 68 1017.6
20260904081550 75 0 0.0 0.0 0.00 0.00 0.00 68 1017.6
20260904081027 75 0 0.0 0.0 0.00 0.00 0.00 68 1017.5
20260904080525 75 0 0.0 0.0 0.00 0.00 0.00 67 1017.5
20260904080046 75 0 0.0 0.0 0.00 0.00 0.00 67 1017.5
20260904075525 75 0 0.0 0.0 0.00 0.00 0.00 67 1017.4
20260904075029 75 0 0.0 0.0 0.00 0.00 0.00 67 1017.6
20260904074601 75 0 0.0 0.0 0.00 0.00 0.00 66 1017.6
20260904074023 75 0 0.0 0.0 0.00 0.00 0.00 66 1017.6
20260904073524 76 0 0.0 0.0 0.00 0.00 0.00 66 1017.7
20260904073043 76 0 0.0 0.0 0.00 0.00 0.00 66 1017.6
20260904072524 76 0 0.0 0.0 0.00 0.00 0.00 65 1017.6
20260904072025 76 0 0.0 0.0 0.00 0.00 0.00 65 1017.7
20260904071548 76 0 0.0 0.0 0.00 0.00 0.00 65 1017.6
20260904071025 76 0 0.0 0.0 0.00 0.00 0.00 65 1017.7
20260904070525 76 0 0.0 0.0 0.00 0.00 0.00 65 1017.7
20260904070056 76 0 0.0 0.0 0.00 0.00 0.00 64 1017.7
20260904065528 77 0 0.0 0.0 0.00 0.00 0.00 64 1017.7
20260904065024 77 0 0.0 0.0 0.00 0.00 0.00 64 1017.7
20260904064546 77 0 0.0 0.0 0.00 0.00 0.00 64 1017.8
20260904064025 77 0 0.0 0.0 0.00 0.00 0.00 64 1017.8
20260904063524 77 0 0.0 0.0 0.00 0.00 0.00 64 1017.8
20260904063047 77 0 0.0 0.0 0.00 0.00 0.00 64 1017.8
20260904062529 77 0 0.0 0.0 0.00 0.00 0.00 64 1018.0
20260904062025 77 0 0.0 0.0 0.00 0.00 0.00 64 1018.0
20260904061547 77 0 0.0 0.0 0.00 0.00 0.00 64 1018.0
20260904061028 77 0 0.0 0.0 0.00 0.00 0.00 64 1018.0
20260904060526 77 0 0.0 0.0 0.00 0.00 0.00 64 1018.1
20260904060048 77 0 0.0 0.0 0.00 0.00 0.00 64 1018.2
20260904055525 77 0 0.0 0.0 0.00 0.00 0.00 64 1018.2
20260904055026 78 0 0.0 0.0 0.00 0.00 0.00 64 1018.3
20260904054544 78 0 0.0 0.0 0.00 0.00 0.00 64 1018.3
20260904054023 78 0 0.0 0.0 0.00 0.00 0.00 64 1018.3
20260904053522 78 0 0.0 0.0 0.00 0.00 0.00 64 1018.3
20260904053050 78 0 0.0 0.0 0.00 0.00 0.00 64 1018.2
20260904052525 78 0 0.0 0.0 0.00 0.00 0.00 64 1018.3
20260904052025 78 0 0.0 0.0 0.00 0.00 0.00 63 1018.3
20260904051547 78 0 0.0 0.0 0.00 0.00 0.00 63 1018.3
20260904051025 78 0 0.0 0.0 0.00 0.00 0.00 63 1018.4
20260904050529 79 0 0.0 0.0 0.00 0.00 0.00 63 1018.4
20260904050049 79 0 0.0 0.0 0.00 0.00 0.00 62 1018.4
20260904045524 79 0 0.0 0.0 0.00 0.00 0.00 62 1018.4
20260904045026 79 0 0.0 0.0 0.00 0.00 0.00 61 1018.5
20260904044544 79 0 0.0 0.0 0.00 0.00 0.00 61 1018.5
20260904044022 80 0 0.0 0.0 0.00 0.00 0.00 61 1018.5
20260904043529 80 0 0.0 0.0 0.00 0.00 0.00 60 1018.6
20260904043054 79 0 0.0 0.0 0.00 0.00 0.00 61 1018.5
20260904042524 79 0 0.0 0.0 0.00 0.00 0.00 61 1018.5
20260904042025 79 0 0.0 0.0 0.00 0.00 0.00 61 1018.5
20260904041555 79 0 0.0 0.0 0.00 0.00 0.00 62 1018.5
20260904041023 79 0 0.0 0.0 0.00 0.00 0.00 62 1018.6
20260904040525 79 0 0.0 0.0 0.00 0.00 0.00 62 1018.6
20260904040103 79 0 0.0 1.0 0.00 0.00 0.00 62 1018.5
20260904035524 79 0 0.0 1.0 0.00 0.00 0.00 62 1018.6
20260904035026 80 0 0.0 1.0 0.00 0.00 0.00 62 1018.7
20260904034544 80 0 0.0 1.0 0.00 0.00 0.00 62 1018.6
20260904034024 80 0 0.0 0.0 0.00 0.00 0.00 61 1018.6
20260904033525 80 0 0.0 0.0 0.00 0.00 0.00 61 1018.7
20260904033048 80 0 0.0 0.0 0.00 0.00 0.00 61 1018.7
20260904032525 80 0 0.0 1.0 0.00 0.00 0.00 61 1018.7
20260904032025 80 0 0.0 1.0 0.00 0.00 0.00 61 1018.6
20260904031550 81 0 0.0 1.0 0.00 0.00 0.00 60 1018.6
20260904031024 81 0 0.0 1.0 0.00 0.00 0.00 60 1018.6
20260904030525 81 0 0.0 0.0 0.00 0.00 0.00 59 1018.6
20260904030045 81 0 0.0 0.0 0.00 0.00 0.00 59 1018.6
20260904025523 81 0 0.0 0.0 0.00 0.00 0.00 59 1018.7
20260904025024 82 0 0.0 0.0 0.00 0.00 0.00 59 1018.6
20260904024542 82 0 0.0 0.0 0.00 0.00 0.00 58 1018.7
20260904024023 82 0 0.0 0.0 0.00 0.00 0.00 58 1018.6
20260904023525 82 0 0.0 0.0 0.00 0.00 0.00 58 1018.6
20260904023051 82 0 0.0 0.0 0.00 0.00 0.00 58 1018.6
20260904022525 82 0 0.0 0.0 0.00 0.00 0.00 58 1018.6
20260904022028 82 0 0.0 0.0 0.00 0.00 0.00 57 1018.4
20260904021546 82 0 0.0 0.0 0.00 0.00 0.00 57 1018.4
20260904021028 82 0 0.0 0.0 0.00 0.00 0.00 57 1018.4
20260904020528 82 0 0.0 0.0 0.00 0.00 0.00 57 1018.3
20260904020045 83 0 0.0 0.0 0.00 0.00 0.00 56 1018.3
20260904015526 83 0 0.0 0.0 0.00 0.00 0.00 56 1018.2
20260904015027 83 0 0.0 0.0 0.00 0.00 0.00 56 1018.2
20260904014614 83 0 0.0 0.0 0.00 0.00 0.00 56 1018.2
20260904014023 83 0 0.0 0.0 0.00 0.00 0.00 56 1018.2
20260904013524 83 0 0.0 0.0 0.00 0.00 0.00 56 1018.1
20260904013050 83 0 0.0 0.0 0.00 0.00 0.00 56 1018.1
20260904012528 83 0 0.0 0.0 0.00 0.00 0.00 55 1018.1
20260904012028 84 0 0.0 0.0 0.00 0.00 0.00 55 1018.0
20260904011551 84 0 0.0 0.0 0.00 0.00 0.00 55 1017.9
20260904011025 84 0 0.0 0.0 0.00 0.00 0.00 54 1017.8
20260904010525 84 0 0.0 0.0 0.00 0.00 0.00 53 1017.8
20260904010050 85 0 0.0 0.0 0.00 0.00 0.00 53 1017.7
20260904005525 85 0 0.0 0.0 0.00 0.00 0.00 53 1017.4
20260904005025 85 0 0.0 0.0 0.00 0.00 0.00 52 1017.4
20260904004545 85 0 0.0 0.0 0.00 0.00 0.00 52 1017.4
20260904004024 86 0 0.0 0.0 0.00 0.00 0.00 51 1017.2
20260904003524 86 0 0.0 0.0 0.00 0.00 0.00 51 1017.1
20260904003046 86 0 0.0 0.0 0.00 0.00 0.00 50 1017.1
20260904002525 87 0 0.0 1.0 0.00 0.00 0.00 50 1017.0
20260904002026 87 0 0.0 1.0 0.00 0.00 0.00 50 1016.9
20260904001549 87 0 0.0 0.0 0.00 0.00 0.00 49 1016.8
20260904001025 87 0 0.0 1.0 0.00 0.00 0.00 49 1016.7
20260904000530 88 0 0.0 1.0 0.00 0.00 0.00 49 1016.7
20260904000045 88 0 0.0 1.0 0.00 0.00 0.00 48 1016.7
20260903235527 88 0 0.0 1.0 0.00 0.00 0.00 47 1016.6
20260903235027 89 0 0.0 1.0 0.00 0.00 0.00 47 1016.6
20260903234545 89 91 0.0 1.0 0.00 0.00 0.00 46 1016.6
20260903234024 89 91 0.0 1.0 0.00 0.00 0.00 46 1016.5
20260903233525 90 0 0.0 1.0 0.00 0.00 0.00 45 1016.6
20260903233104 90 0 0.0 1.0 0.00 0.00 0.00 45 1016.5
20260903232527 90 91 0.0 1.0 0.00 0.00 0.00 44 1016.4
20260903232024 91 91 0.0 1.0 0.00 0.00 0.00 44 1016.4
20260903231546 91 91 0.0 1.0 0.00 0.00 0.00 43 1016.4
20260903231029 91 0 0.0 2.0 0.00 0.00 0.00 42 1016.4
20260903230527 92 0 0.0 2.0 0.00 0.00 0.00 41 1016.4
20260903230053 92 91 1.0 2.0 0.00 0.00 0.00 41 1016.4
20260903225527 92 91 1.0 4.0 0.00 0.00 0.00 40 1016.5
20260903225028 93 91 0.0 4.0 0.00 0.00 0.00 40 1016.5
20260903224543 93 90 1.0 5.0 0.00 0.00 0.00 39 1016.6
20260903224024 93 84 2.0 5.0 0.00 0.00 0.00 38 1016.5
20260903223525 94 85 3.0 5.0 0.00 0.00 0.00 37 1016.5
20260903223108 94 103 2.0 6.0 0.00 0.00 0.00 38 1016.5
20260903222525 94 100 1.0 6.0 0.00 0.00 0.00 38 1016.5
20260903222025 94 79 2.0 6.0 0.00 0.00 0.00 37 1016.5
20260903221546 94 93 3.0 6.0 0.00 0.00 0.00 37 1016.5
20260903221025 95 94 2.0 6.0 0.00 0.00 0.00 36 1016.5
20260903220527 95 33 1.0 4.0 0.00 0.00 0.00 36 1016.5
20260903220109 95 40 1.0 5.0 0.00 0.00 0.00 36 1016.5
20260903215527 95 99 0.0 5.0 0.00 0.00 0.00 37 1016.4
20260903215023 95 96 1.0 3.0 0.00 0.00 0.00 36 1016.4
20260903214544 95 0 0.0 4.0 0.00 0.00 0.00 36 1016.5
20260903214027 95 92 0.0 8.0 0.00 0.00 0.00 37 1016.5
20260903213529 95 105 3.0 8.0 0.00 0.00 0.00 35 1016.4
20260903213049 95 91 1.0 5.0 0.00 0.00 0.00 37 1016.5
20260903212524 95 98 2.0 7.0 0.00 0.00 0.00 36 1016.4
20260903212025 95 86 3.0 7.0 0.00 0.00 0.00 36 1016.5
20260903211552 96 278 2.0 4.0 0.00 0.00 0.00 36 1016.5
20260903211025 96 94 0.0 2.0 0.00 0.00 0.00 36 1016.6
20260903210525 95 94 0.0 7.0 0.00 0.00 0.00 34 1016.7
20260903210049 95 0 1.0 7.0 0.00 0.00 0.00 35 1016.7
20260903205527 96 86 3.0 5.0 0.00 0.00 0.00 36 1016.7
20260903205024 95 115 1.0 4.0 0.00 0.00 0.00 36 1016.8
20260903204545 95 165 1.0 4.0 0.00 0.00 0.00 37 1016.7
20260903204029 95 110 0.0 4.0 0.00 0.00 0.00 36 1016.8